Three Rivers, MI

9:43 AM EST on December 15, 2017 (GMT -0500)
Three Rivers Municipal-Haines

Weather History for KHAI - October, 2013

Change the Weather History Date:

Friday, October 11, 2013

  Actual Average Record
Temperature  
Mean Temperature 56 °F -  
Max Temperature 74 °F 63 °F 127 °F (2006)
Min Temperature 39 °F 40 °F 23 °F (1964)
Degree Days  
Heating Degree Days 8    
Growing Degree Days 6 (Base 50)    
Moisture  
Dew Point 45 °F    
Average Humidity 70    
Maximum Humidity 94    
Minimum Humidity 33    
Precipitation  
Precipitation 0.00 in - - ()
Sea Level Pressure  
Sea Level Pressure 30.10 in    
Wind  
Wind Speed 1 mph (SE)    
Max Wind Speed 8 mph    
Max Gust Speed -    
Visibility 9 miles    
Events      
Averages and records for this station are not official NWS values.
T = Trace of Precipitation, MM = Missing Value Source: NWS Daily Summary

Daily Weather History Graph

Daily Weather History Graph

Search for Another Location

Airport or City:

Trip Planner

Search our weather history database for the weather conditions in past years. The results will help you decide how hot, cold, wet, or windy it might be!

Date:

Astronomy

Oct. 11, 2013 Rise Set
Actual Time 7:50 AM EDT 7:06 PM EDT
Civil Twilight 7:22 AM EDT 7:34 PM EDT
Nautical Twilight 6:50 AM EDT 8:07 PM EDT
Astronomical Twilight 6:17 AM EDT 8:39 PM EDT
Moon 2:35 PM EDT (10/11) No Moon Set
Length of Visible Light 12h 12m
Length of Day
11h 16m
Waxing Crescent, 47% of the Moon is Illuminated
Oct 11
Waxing Crescent
Oct 11
First Quarter
Oct 18
Full
Oct 26
Last Quarter
Nov 3
New

Hourly Weather History & Observations

Time (EDT) Temp. Dew Point Humidity Pressure Visibility Wind Dir Wind Speed Gust Speed Precip Events Conditions
12:15 AM 50.2 °F 43.3 °F 77% 30.12 in 10.0 mi Calm Calm - N/A   Clear
12:34 AM 47.8 °F 43.7 °F 86% 30.11 in 10.0 mi Calm Calm - N/A   Clear
12:55 AM 47.7 °F 44.2 °F 88% 30.11 in 10.0 mi Calm Calm - N/A   Clear
1:15 AM 47.5 °F 44.4 °F 89% 30.11 in 10.0 mi Calm Calm - N/A   Clear
1:34 AM 47.3 °F 44.8 °F 91% 30.11 in 10.0 mi Calm Calm - N/A   Clear
1:55 AM 45.5 °F 43.2 °F 92% 30.12 in 10.0 mi Calm Calm - N/A   Clear
2:14 AM 45.5 °F 43.0 °F 91% 30.12 in 10.0 mi Calm Calm - N/A   Clear
2:34 AM 45.1 °F 43.0 °F 92% 30.12 in 10.0 mi Calm Calm - N/A   Clear
2:55 AM 44.4 °F 41.5 °F 90% 30.11 in 10.0 mi Calm Calm - N/A   Clear
3:14 AM 43.3 °F 40.6 °F 90% 30.11 in 1.8 mi Calm Calm - N/A   Mist
3:35 AM 43.2 °F 41.2 °F 93% 30.11 in 7.0 mi Calm Calm - N/A   Clear
3:55 AM 41.9 °F 40.1 °F 93% 30.11 in 5.0 mi Calm Calm - N/A   Clear
4:14 AM 42.4 °F 40.5 °F 93% 30.11 in 7.0 mi Calm Calm - N/A   Clear
4:35 AM 41.9 °F 39.9 °F 93% 30.11 in 1.2 mi Calm Calm - N/A   Mist
4:55 AM 42.3 °F 40.3 °F 93% 30.12 in 7.0 mi Calm Calm - N/A   Clear
5:14 AM 42.3 °F 40.3 °F 93% 30.12 in 1.0 mi Calm Calm - N/A   Mist
5:35 AM 42.3 °F 40.3 °F 93% 30.12 in 1.5 mi Calm Calm - N/A   Mist
5:55 AM 41.2 °F 39.0 °F 92% 30.12 in 7.0 mi Calm Calm - N/A   Clear
6:14 AM 41.2 °F 39.2 °F 93% 30.12 in 7.0 mi Calm Calm - N/A   Clear
6:35 AM 40.5 °F 38.7 °F 93% 30.13 in 5.0 mi Calm Calm - N/A   Clear
6:54 AM 39.7 °F 37.8 °F 93% 30.14 in 5.0 mi Calm Calm - N/A   Clear
7:15 AM 40.3 °F 38.3 °F 93% 30.14 in 7.0 mi Calm Calm - N/A   Clear
7:35 AM 39.4 °F 37.6 °F 93% 30.15 in 1.2 mi Calm Calm - N/A   Mist
7:54 AM 39.4 °F 37.6 °F 93% 30.14 in 7.0 mi Calm Calm - N/A   Clear
8:15 AM 39.6 °F 37.9 °F 94% 30.14 in 10.0 mi Calm Calm - N/A   Clear
8:34 AM 41.5 °F 39.6 °F 93% 30.15 in 7.0 mi Calm Calm - N/A   Clear
8:54 AM 43.5 °F 41.4 °F 92% 30.15 in 4.0 mi Calm Calm - N/A   Clear
9:14 AM 46.4 °F 43.9 °F 91% 30.15 in 5.0 mi Calm Calm - N/A   Clear
9:34 AM 49.1 °F 46.9 °F 92% 30.15 in 7.0 mi East 3.5 mph - N/A   Clear
9:55 AM 51.6 °F 48.7 °F 90% 30.15 in 7.0 mi East 3.5 mph - N/A   Clear
10:14 AM 53.6 °F 49.8 °F 87% 30.15 in 7.0 mi East 3.5 mph - N/A   Clear
10:34 AM 55.8 °F 51.1 °F 84% 30.14 in 10.0 mi Calm Calm - N/A   Clear
10:55 AM 58.3 °F 51.6 °F 78% 30.13 in 10.0 mi Calm Calm - N/A   Clear
11:14 AM 60.4 °F 52.3 °F 75% 30.13 in 10.0 mi Calm Calm - N/A   Clear
11:35 AM 61.7 °F 51.8 °F 70% 30.13 in 10.0 mi East 3.5 mph - N/A   Clear
11:55 AM 63.9 °F 50.5 °F 62% 30.13 in 10.0 mi Calm Calm - N/A   Clear
12:14 PM 65.3 °F 50.4 °F 58% 30.12 in 10.0 mi SE 3.5 mph - N/A   Clear
12:35 PM 67.3 °F 48.6 °F 51% 30.12 in 10.0 mi ESE 3.5 mph - N/A   Clear
12:55 PM 68.5 °F 46.9 °F 46% 30.12 in 10.0 mi SSE 3.5 mph - N/A   Clear
1:14 PM 69.3 °F 44.1 °F 40% 30.11 in 10.0 mi Calm Calm - N/A   Clear
1:35 PM 70.0 °F 43.3 °F 38% 30.11 in 10.0 mi NE 4.6 mph - N/A   Clear
1:55 PM 70.9 °F 44.6 °F 39% 30.10 in 10.0 mi Calm Calm - N/A   Clear
2:14 PM 71.2 °F 44.4 °F 38% 30.09 in 10.0 mi WNW 3.5 mph - N/A   Clear
2:35 PM 72.0 °F 43.9 °F 36% 30.09 in 10.0 mi Calm Calm - N/A   Clear
2:54 PM 72.5 °F 43.2 °F 35% 30.08 in 10.0 mi Calm Calm - N/A   Clear
3:15 PM 74.3 °F 44.1 °F 34% 30.07 in 10.0 mi Calm Calm - N/A   Clear
3:34 PM 74.3 °F 44.6 °F 35% 30.07 in 10.0 mi West 3.5 mph - N/A   Clear
3:54 PM 73.9 °F 45.1 °F 36% 30.07 in 10.0 mi SSW 6.9 mph - N/A   Clear
4:15 PM 73.9 °F 43.3 °F 33% 30.06 in 10.0 mi Calm Calm - N/A   Clear
4:34 PM 74.1 °F 43.2 °F 33% 30.06 in 10.0 mi ESE 3.5 mph - N/A   Clear
4:55 PM 74.3 °F 43.0 °F 33% 30.05 in 10.0 mi South 3.5 mph - N/A   Clear
5:14 PM 74.1 °F 43.3 °F 33% 30.05 in 10.0 mi South 3.5 mph - N/A   Clear
5:34 PM 73.8 °F 43.5 °F 34% 30.05 in 10.0 mi SE 3.5 mph - N/A   Clear
5:55 PM 73.4 °F 45.5 °F 37% 30.05 in 10.0 mi SE 3.5 mph - N/A   Clear
6:14 PM 72.9 °F 44.6 °F 36% 30.04 in 10.0 mi SSE 3.5 mph - N/A   Clear
6:35 PM 71.8 °F 46.0 °F 40% 30.04 in 10.0 mi Calm Calm - N/A   Clear
6:55 PM 68.7 °F 47.7 °F 47% 30.04 in 10.0 mi Calm Calm - N/A   Clear
7:14 PM 64.0 °F 48.7 °F 57% 30.04 in 10.0 mi Calm Calm - N/A   Clear
7:35 PM 62.4 °F 49.5 °F 63% 30.05 in 10.0 mi Calm Calm - N/A   Clear
7:55 PM 59.9 °F 49.1 °F 67% 30.05 in 10.0 mi Calm Calm - N/A   Clear
8:14 PM 59.2 °F 50.2 °F 72% 30.05 in 10.0 mi Calm Calm - N/A   Clear
8:35 PM 58.1 °F 49.8 °F 74% 30.05 in 10.0 mi Calm Calm - N/A   Clear
8:55 PM 58.1 °F 50.9 °F 77% 30.05 in 10.0 mi Calm Calm - N/A   Clear
9:14 PM 58.5 °F 50.0 °F 73% 30.05 in 10.0 mi ESE 3.5 mph - N/A   Clear
9:35 PM 60.4 °F 49.6 °F 68% 30.05 in 10.0 mi Calm Calm - N/A   Clear
9:54 PM 62.4 °F 49.5 °F 63% 30.05 in 10.0 mi Calm Calm - N/A   Clear
10:14 PM 61.3 °F 49.8 °F 66% 30.05 in 10.0 mi ESE 8.1 mph - N/A   Clear
10:35 PM 61.3 °F 51.8 °F 71% 30.05 in 10.0 mi ESE 8.1 mph - N/A   Clear
10:54 PM 60.8 °F 52.0 °F 73% 30.05 in 10.0 mi ESE 6.9 mph - N/A   Clear
11:15 PM 60.1 °F 52.2 °F 75% 30.05 in 10.0 mi ESE 4.6 mph - N/A   Clear
11:34 PM 59.5 °F 52.2 °F 77% 30.06 in 10.0 mi ESE 5.8 mph - N/A   Clear
11:54 PM 59.0 °F 51.8 °F 77% 30.06 in 10.0 mi ESE 3.5 mph - N/A   Clear